カタログに戻る

COSMOS 2535 DEB

運用中SSO
NORAD 44641·DEBRIS·🇷🇺 Russia

打ち上げ Jul 10, 2019 から Plesetsk Cosmodrome

Loading…

次のパス (今後24時間)

TLE

最新Source: Space-Track

元期: Sep 14, 2026, 10:58 UTC

1 44641U 19039M   26257.45698637  .00016173  00000-0  46689-3 0  9995
2 44641  97.5451 333.3675 0013336  16.8251 343.3432 15.35673316380813

AllMySatでCOSMOS 2535 DEBをリアルタイム追跡

Download on the App Store